1491278400.81,48115,14.38,73940.8,-1.67,-5.11,-6.55,0,*5A
1491278402.01,48116,14.38,73942.3,-1.67,-4.57,-5.35,0,*5F
1491278403.22,48117,14.38,73942.8,-1.67,-4.25,-4.57,0,*5E
1491278404.44,48118,14.38,73942.5,-1.65,-4.41,-4.17,0,*55
1491278405.63,48119,14.38,73942.3,-1.67,-4.49,-4.13,0,*5A
1491278406.85,48120,14.38,73942.3,-1.65,-4.65,-4.05,0,*5B
1491278408.06,48121,14.38,73938.8,-1.67,-4.57,-4.13,0,*5E
1491278409.31,48122,14.31,73936.5,-1.65,-4.21,-4.01,0,*5D
1491278410.51,48123,14.31,73938.5,-1.67,-4.09,-3.91,0,*5A
1491278411.71,48124,14.38,73942.8,-1.67,-4.05,-3.87,0,*56
1491278412.93,48125,14.38,73942.0,-1.65,-4.17,-3.91,0,*51
1491278414.13,48126,14.38,73942.3,-1.67,-4.37,-4.05,0,*58
1491278415.35,48127,14.31,73940.3,-1.65,-4.57,-4.05,0,*5D
1491278416.6,48128,14.38,73940.0,-1.65,-5.19,-4.09,0,*55
1491278417.85,48129,14.38,73942.0,-1.65,-6.13,-4.69,0,*5B
1491278419.1,48130,14.38,73938.8,-1.65,-7.01,-5.43,0,*58
1491278420.35,48131,14.31,73936.0,-1.65,-8.11,-6.47,0,*50
1491278421.61,48132,14.31,73936.8,-1.65,-9.01,-8.07,0,*59
1491278422.84,48133,14.31,73942.5,-1.65,-8.25,-7.87,0,*58
1491278424.08,48134,14.38,73946.0,-1.65,-8.29,-7.69,0,*53
1491278425.32,48135,14.38,73946.8,-1.65,-8.29,-7.95,0,*51
1491278426.54,48136,14.38,73940.8,-1.67,-7.43,-8.25,0,*57
1491278427.8,48137,14.38,73942.3,-1.65,-5.89,-7.19,0,*50
1491278429.07,48138,14.38,73938.5,-1.65,-5.19,-5.85,0,*51
1491278430.35,48139,14.38,73940.8,-1.65,-5.11,-5.23,0,*54
1491278431.6,48140,14.38,73942.0,-1.63,-5.31,-4.93,0,*54
1491278432.83,48141,14.38,73942.8,-1.63,-5.43,-5.07,0,*5C
1491278434.06,48142,14.38,73944.5,-1.63,-5.93,-5.39,0,*5F
1491278435.29,48143,14.31,73940.8,-1.63,-6.19,-5.51,0,*51
1491278436.5,48144,14.38,73940.0,-1.63,-6.43,-5.55,0,*5D
1491278437.74,48145,14.38,73942.8,-1.63,-6.63,-5.73,0,*5A
1491278438.96,48146,14.38,73946.8,-1.63,-7.27,-6.09,0,*56
1491278440.19,48147,14.38,73946.5,-1.63,-8.51,-6.73,0,*54
1491278441.41,48148,14.38,73944.5,-1.65,-9.75,-7.83,0,*54
1491278442.61,48149,14.31,73944.5,-1.63,-10.09,-8.97,0,*6A
1491278443.82,48150,14.31,73942.8,-1.63,-10.35,-8.97,0,*6D
1491278445.08,48151,14.31,73944.0,-1.63,-10.63,-9.53,0,*66
1491278446.34,48152,14.38,73940.8,-1.63,-9.15,-9.41,0,*5F
1491278447.56,48153,14.31,73942.8,-1.65,-8.63,-8.41,0,*59
1491278448.79,48154,14.38,73944.5,-1.65,-8.63,-7.83,0,*5F
1491278450.02,48155,14.38,73946.5,-1.65,-9.75,-8.37,0,*58
1491278451.25,48156,14.38,73944.5,-1.65,-11.01,-9.97,0,*6A
1491278452.53,48157,14.38,73946.0,-1.65,-11.85,-11.85,0,*5D
1491278453.79,48158,14.38,73946.5,-1.65,-10.45,-11.93,0,*58
1491278455.03,48159,14.31,73940.8,-1.65,-8.89,-10.57,0,*69
1491278456.28,48160,14.38,73946.8,-1.65,-7.61,-8.89,0,*50
1491278457.51,48161,14.38,73944.5,-1.65,-7.15,-7.83,0,*57
1491278458.76,48162,14.31,73940.5,-1.65,-7.01,-7.15,0,*5E
1491278460.02,48163,14.31,73940.3,-1.65,-7.01,-7.05,0,*5E
1491278461.27,48164,14.38,73942.5,-1.65,-6.77,-6.93,0,*57
1491278462.52,48165,14.38,73944.5,-1.65,-6.27,-6.55,0,*59
1491278463.77,48166,14.38,73944.3,-1.65,-5.85,-6.35,0,*57
1491278465.05,48167,14.38,73944.8,-1.65,-5.31,-5.77,0,*5C
1491278466.32,48168,14.31,73940.0,-1.65,-4.89,-5.23,0,*50
1491278467.57,48169,14.31,73938.5,-1.65,-4.57,-4.93,0,*58
1491278468.78,48170,14.38,73942.0,-1.67,-4.33,-4.61,0,*5D
1491278470.0,48171,14.31,73938.3,-1.65,-4.29,-4.41,0,*57
1491278471.22,48172,14.38,73940.0,-1.65,-4.29,-4.45,0,*50
1491278472.43,48173,14.38,73940.0,-1.67,-4.21,-4.53,0,*5C
1491278473.65,48174,14.38,73942.8,-1.65,-4.17,-4.45,0,*5B
1491278474.91,48175,14.31,73940.3,-1.65,-4.01,-4.33,0,*5C
1491278476.11,48176,14.31,73942.5,-1.63,-3.83,-3.95,0,*5F
1491278477.37,48177,14.31,73940.5,-1.61,-3.59,-3.75,0,*55
1491278478.62,48178,14.38,73942.5,-1.63,-3.47,-3.59,0,*59
1491278479.81,48179,14.31,73940.3,-1.63,-3.23,-3.39,0,*5C
1491278481.01,48180,14.38,73942.8,-1.63,-3.19,-3.35,0,*5F
1491278482.22,48181,14.31,73938.5,-1.63,-3.11,-3.27,0,*55
1491278483.44,48182,14.38,73942.8,-1.65,-3.23,-3.27,0,*51
1491278484.64,48183,14.38,73942.0,-1.63,-3.27,-3.19,0,*5F
1491278485.84,48184,14.31,73940.8,-1.63,-3.39,-3.35,0,*59
1491278487.09,48185,14.38,73942.0,-1.63,-3.59,-3.51,0,*5C
1491278488.31,48186,14.31,73940.0,-1.63,-3.75,-3.63,0,*50
1491278489.52,48187,14.31,73940.3,-1.63,-3.95,-4.05,0,*58
1491278490.75,48188,14.31,73938.8,-1.63,-3.71,-4.25,0,*5F
1491278492.0,48189,14.31,73938.5,-1.61,-3.47,-3.87,0,*56
1491278493.24,48190,14.38,73940.3,-1.61,-3.23,-3.59,0,*5F
1491278494.47,48191,14.31,73936.5,-1.61,-3.11,-3.35,0,*55
1491278495.67,48192,14.31,73936.5,-1.63,-2.95,-3.11,0,*5F
1491278496.9,48193,14.38,73938.3,-1.63,-2.71,-2.95,0,*59
1491278498.18,48194,14.38,73938.3,-1.61,-2.63,-2.71,0,*55
1491278499.44,48195,14.38,73934.5,-1.63,-2.51,-2.63,0,*54
1491278500.69,48196,14.38,73938.5,-1.63,-2.51,-2.59,0,*5E
1491278501.94,48197,14.31,73932.3,-1.61,-2.39,-2.51,0,*5B
1491278503.22,48198,14.38,73934.0,-1.61,-2.47,-2.47,0,*5A
1491278504.5,48199,14.38,73930.0,-1.61,-2.47,-2.47,0,*5B
1491278505.73,48200,14.31,73930.3,-1.61,-2.39,-2.39,0,*58
1491278506.98,48201,14.31,73926.3,-1.61,-2.47,-2.39,0,*50
1491278508.24,48202,14.31,73924.0,-1.61,-2.47,-2.39,0,*53
1491278509.49,48203,14.31,73926.3,-1.61,-2.47,-2.39,0,*52
1491278510.71,48204,14.31,73926.8,-1.61,-2.39,-2.39,0,*5C
1491278511.94,48205,14.31,73930.8,-1.59,-2.47,-2.43,0,*52
1491278513.16,48206,14.31,73930.0,-1.59,-2.55,-2.43,0,*52
1491278514.39,48207,14.38,73936.0,-1.59,-2.71,-2.43,0,*55
1491278515.61,48208,14.31,73936.5,-1.59,-3.07,-2.59,0,*51
1491278516.85,48209,14.31,73940.3,-1.59,-3.31,-2.71,0,*5F
1491278518.05,48210,14.31,73938.5,-1.59,-4.33,-3.07,0,*52
1491278519.27,48211,14.38,73944.8,-1.55,-5.47,-3.55,0,*5A
1491278520.51,48212,14.38,73946.5,-1.59,-6.97,-4.57,0,*5E
1491278521.7,48213,14.38,73942.8,-1.59,-8.33,-6.05,0,*5A
1491278522.93,48214,14.31,73942.3,-1.59,-9.11,-6.85,0,*54
1491278524.16,48215,14.31,73942.5,-1.59,-9.41,-6.69,0,*52
1491278525.39,48216,14.31,73942.0,-1.59,-12.11,-7.49,0,*6D
1491278526.65,48217,14.38,73940.3,-1.61,-15.81,-9.67,0,*6B
1491278527.86,48218,14.31,73940.0,-1.59,-16.41,-11.11,0,*58
1491278529.13,48219,14.31,73940.0,-1.59,-17.93,-12.61,0,*53
1491278530.36,48220,14.38,73946.3,-1.61,-19.95,-14.33,0,*5B
1491278531.61,48221,14.38,73940.3,-1.63,-19.51,-15.81,0,*58
1491278532.84,48222,14.38,73946.5,-1.63,-18.59,-16.37,0,*5C
1491278534.1,48223,14.38,73946.3,-1.61,-19.65,-16.93,0,*5F
1491278535.3,48224,14.38,73942.8,-1.63,-20.09,-17.31,0,*53
1491278536.53,48225,14.31,73944.3,-1.61,-20.09,-17.73,0,*56
1491278537.8,48226,14.38,73944.0,-1.61,-19.17,-18.35,0,*5D
1491278539.01,48227,14.38,73944.0,-1.63,-19.71,-19.07,0,*5E
1491278540.23,48228,14.38,73946.8,-1.65,-20.05,-19.91,0,*51
1491278541.5,48229,14.31,73944.8,-1.65,-17.35,-20.49,0,*58
1491278542.73,48230,14.38,73946.5,-1.67,-9.93,-14.97,0,*65
1491278544.01,48231,14.31,73946.5,-1.65,-7.27,-10.67,0,*6C
1491278545.29,48232,14.38,73946.8,-1.65,-5.89,-7.27,0,*5B
1491278546.56,48233,14.38,73942.8,-1.65,-5.11,-5.85,0,*51
1491278547.77,48234,14.38,73946.8,-1.65,-4.45,-4.99,0,*5A
1491278549.01,48235,14.38,73944.3,-1.65,-3.91,-4.29,0,*5E
1491278550.26,48236,14.38,73948.3,-1.65,-3.63,-3.91,0,*54
1491278551.51,48237,14.38,73946.5,-1.65,-3.31,-3.63,0,*5F
1491278552.75,48238,14.31,73944.0,-1.65,-3.23,-3.43,0,*51
1491278553.94,48239,14.31,73944.0,-1.63,-3.11,-3.23,0,*51
1491278555.14,48240,14.38,73948.3,-1.63,-2.99,-3.11,0,*5F
1491278556.33,48241,14.38,73946.8,-1.63,-2.99,-3.07,0,*59
1491278557.54,48242,14.31,73944.5,-1.63,-2.99,-3.07,0,*5A
1491278558.74,48243,14.38,73944.5,-1.63,-2.95,-2.87,0,*5E
1491278559.97,48244,14.38,73944.5,-1.61,-3.07,-2.95,0,*52
1491278561.2,48245,14.31,73942.3,-1.61,-3.19,-2.99,0,*50
1491278562.4,48246,14.38,73944.0,-1.63,-3.19,-2.99,0,*51
1491278563.63,48247,14.38,73946.0,-1.61,-3.11,-3.07,0,*5C
1491278564.85,48248,14.38,73946.3,-1.61,-3.23,-3.07,0,*52
1491278566.05,48249,14.38,73944.5,-1.63,-3.27,-3.11,0,*52
1491278567.3,48250,14.38,73946.5,-1.61,-3.51,-3.11,0,*59
1491278568.53,48251,14.38,73946.5,-1.61,-3.87,-3.19,0,*5B
1491278569.75,48252,14.38,73948.3,-1.61,-4.37,-3.39,0,*56
1491278571.0,48253,14.38,73946.5,-1.61,-5.03,-3.75,0,*59
1491278572.25,48254,14.31,73946.5,-1.61,-5.73,-4.13,0,*5E
1491278573.5,48255,14.38,73944.8,-1.61,-5.93,-4.49,0,*5E
1491278574.73,48256,14.31,73940.8,-1.59,-6.13,-4.89,0,*51
1491278575.99,48257,14.38,73946.5,-1.63,-6.19,-5.19,0,*5B
1491278577.27,48258,14.31,73944.0,-1.61,-5.73,-5.31,0,*53
1491278578.52,48259,14.38,73950.3,-1.61,-5.39,-5.19,0,*56
1491278579.77,48260,14.31,73944.8,-1.63,-5.07,-4.93,0,*50
1491278581.02,48261,14.38,73944.8,-1.61,-4.93,-4.65,0,*56
1491278582.26,48262,14.38,73946.5,-1.61,-4.93,-4.41,0,*53
1491278583.52,48263,14.31,73946.0,-1.61,-5.07,-4.41,0,*5E
1491278584.77,48264,14.31,73946.8,-1.61,-5.31,-4.37,0,*5D
1491278586.02,48265,14.38,73946.5,-1.61,-5.73,-4.53,0,*58
1491278587.26,48266,14.38,73950.0,-1.59,-6.01,-4.85,0,*5D
1491278588.49,48267,14.38,73950.8,-1.59,-6.55,-5.15,0,*55
1491278589.77,48268,14.31,73948.5,-1.61,-7.35,-5.81,0,*5B
1491278590.99,48269,14.38,73944.8,-1.59,-8.17,-6.27,0,*51
1491278592.23,48270,14.31,73944.0,-1.59,-8.85,-6.93,0,*5D
1491278593.43,48271,14.38,73946.5,-1.59,-9.27,-7.53,0,*58
1491278594.64,48272,14.31,73944.0,-1.59,-10.35,-8.45,0,*68
1491278595.86,48273,14.38,73946.3,-1.59,-11.41,-10.49,0,*5E
1491278597.06,48274,14.31,73942.0,-1.59,-10.05,-12.39,0,*5D
1491278598.33,48275,14.31,73940.5,-1.59,-7.73,-10.63,0,*66
1491278599.56,48276,14.38,73940.8,-1.59,-5.89,-8.41,0,*5B
1491278600.76,48277,14.38,73940.8,-1.59,-4.49,-6.31,0,*5E
1491278602.02,48278,14.31,73940.5,-1.61,-3.83,-4.89,0,*5A
1491278603.23,48279,14.38,73942.5,-1.59,-3.35,-3.91,0,*53
1491278604.45,48280,14.38,73940.8,-1.59,-3.19,-3.43,0,*54
1491278605.65,48281,14.31,73942.5,-1.59,-3.07,-3.19,0,*55
1491278606.86,48282,14.38,73946.3,-1.59,-2.95,-3.07,0,*53
1491278608.05,48283,14.38,73946.3,-1.55,-2.83,-2.91,0,*57
1491278609.27,48284,14.31,73944.0,-1.59,-2.71,-2.79,0,*57
1491278610.52,48285,14.31,73946.3,-1.59,-2.59,-2.67,0,*53
1491278611.77,48286,14.38,73946.5,-1.55,-2.59,-2.59,0,*51
1491278613.02,48287,14.38,73948.3,-1.59,-2.67,-2.59,0,*51
1491278614.27,48288,14.31,73946.3,-1.59,-2.67,-2.55,0,*52
1491278615.52,48289,14.38,73946.5,-1.59,-2.67,-2.59,0,*5F
1491278616.78,48290,14.31,73944.0,-1.59,-2.71,-2.67,0,*5D
1491278618.01,48291,14.31,73946.8,-1.59,-2.79,-2.67,0,*54
1491278619.26,48292,14.31,73944.8,-1.55,-2.71,-2.67,0,*53
1491278620.49,48293,14.31,73942.5,-1.59,-2.79,-2.67,0,*56
1491278621.72,48294,14.31,73942.0,-1.55,-2.79,-2.67,0,*5D
1491278622.91,48295,14.31,73942.5,-1.55,-2.91,-2.79,0,*55
1491278624.1,48296,14.31,73940.8,-1.55,-2.91,-2.79,0,*56
1491278625.3,48297,14.31,73944.3,-1.55,-3.03,-2.91,0,*5B
1491278626.5,48298,14.31,73942.0,-1.55,-3.07,-2.83,0,*53
1491278627.69,48299,14.31,73944.0,-1.55,-3.15,-2.91,0,*52
1491278628.89,48300,14.31,73940.0,-1.55,-3.23,-2.95,0,*52
1491278630.12,48301,14.38,73944.5,-1.55,-3.43,-3.03,0,*5B
1491278631.34,48302,14.31,73946.3,-1.55,-3.59,-3.15,0,*54
1491278632.54,48303,14.31,73946.5,-1.55,-3.79,-3.19,0,*5B
1491278633.76,48304,14.31,73946.5,-1.55,-4.25,-3.47,0,*59
1491278634.98,48305,14.31,73946.0,-1.55,-4.49,-3.71,0,*57
1491278636.21,48306,14.31,73944.0,-1.53,-4.77,-3.87,0,*56
1491278637.43,48307,14.31,73946.0,-1.55,-4.89,-4.09,0,*51
1491278638.65,48308,14.38,73950.3,-1.53,-4.99,-4.17,0,*56
1491278639.9,48309,14.38,73948.5,-1.53,-5.19,-4.29,0,*53
1491278641.14,48310,14.31,73946.3,-1.53,-5.23,-4.45,0,*58
1491278642.37,48311,14.31,73946.5,-1.55,-5.27,-4.57,0,*58
1491278643.6,48312,14.31,73946.3,-1.55,-5.27,-4.57,0,*5B
1491278644.82,48313,14.31,73944.8,-1.53,-5.43,-4.53,0,*5A
1491278646.05,48314,14.38,73948.0,-1.53,-5.47,-4.65,0,*5C
1491278647.33,48315,14.38,73944.8,-1.53,-5.89,-4.81,0,*55
1491278648.55,48316,14.38,73948.3,-1.55,-6.69,-5.15,0,*51
1491278649.81,48317,14.31,73944.5,-1.55,-6.97,-5.89,0,*54
1491278651.05,48318,14.31,73944.0,-1.55,-7.31,-6.27,0,*51
1491278652.3,48319,14.38,73952.5,-1.55,-8.11,-6.93,0,*52
1491278653.51,48320,14.38,73948.5,-1.55,-10.35,-8.93,0,*69
1491278654.75,48321,14.38,73944.3,-1.55,-12.15,-11.15,0,*5E
1491278655.96,48322,14.31,73940.0,-1.55,-12.03,-11.41,0,*5B
1491278657.19,48323,14.31,73940.8,-1.55,-10.23,-9.61,0,*61
1491278658.39,48324,14.31,73944.0,-1.55,-10.35,-8.41,0,*62
1491278659.6,48325,14.38,73950.3,-1.55,-10.49,-8.45,0,*6C
1491278660.83,48326,14.38,73948.3,-1.55,-10.79,-8.85,0,*60
1491278662.04,48327,14.38,73948.8,-1.55,-11.01,-9.67,0,*62
1491278663.25,48328,14.38,73948.3,-1.55,-10.89,-10.09,0,*5C
1491278664.46,48329,14.31,73946.0,-1.59,-11.15,-9.93,0,*6E
1491278665.69,48330,14.38,73952.0,-1.55,-11.29,-9.75,0,*6D
1491278666.93,48331,14.31,73946.0,-1.59,-11.07,-9.27,0,*6B
1491278668.13,48332,14.38,73948.5,-1.59,-10.45,-8.93,0,*61
1491278669.36,48333,14.38,73948.3,-1.59,-9.41,-8.21,0,*55
1491278670.57,48334,14.38,73950.5,-1.55,-8.55,-7.49,0,*5B
1491278671.78,48335,14.31,73946.5,-1.59,-8.29,-7.05,0,*55
1491278673.01,48336,14.38,73950.8,-1.59,-8.17,-7.05,0,*5B
1491278674.23,48337,14.38,73946.3,-1.55,-7.87,-6.97,0,*5A
1491278675.45,48338,14.38,73948.5,-1.55,-7.39,-6.85,0,*53
1491278676.65,48339,14.38,73948.5,-1.55,-6.81,-6.43,0,*5A
1491278677.88,48340,14.38,73946.5,-1.55,-6.59,-5.93,0,*5F
1491278679.13,48341,14.38,73954.5,-1.59,-7.31,-5.77,0,*57
1491278680.38,48342,14.38,73948.5,-1.59,-9.49,-6.19,0,*5E
1491278681.61,48343,14.31,73946.8,-1.55,-11.59,-7.53,0,*64
1491278682.83,48344,14.38,73944.8,-1.55,-11.19,-8.81,0,*67
1491278684.07,48345,14.38,73948.0,-1.55,-11.73,-9.15,0,*66
1491278685.31,48346,14.38,73950.5,-1.59,-13.61,-11.19,0,*5D
1491278686.57,48347,14.38,73946.5,-1.59,-14.75,-12.57,0,*57
1491278687.84,48348,14.38,73950.3,-1.59,-14.47,-13.37,0,*5E
1491278689.08,48349,14.38,73948.5,-1.59,-15.25,-13.87,0,*51
1491278690.32,48350,14.38,73946.3,-1.61,-17.69,-16.55,0,*52
1491278691.55,48351,14.38,73948.8,-1.61,-18.73,-17.69,0,*59
1491278692.82,48352,14.31,73944.5,-1.61,-20.63,-19.57,0,*53
1491278694.08,48353,14.38,73946.8,-1.63,-20.35,-21.67,0,*5B
1491278695.32,48354,14.38,73944.5,-1.63,-18.25,-21.53,0,*51
1491278696.55,48355,14.38,73944.0,-1.63,-14.93,-21.39,0,*5D
1491278697.78,48356,14.38,73946.0,-1.63,-9.79,-17.59,0,*65
1491278699.06,48357,14.38,73944.3,-1.61,-5.73,-11.93,0,*60
1491278700.26,48358,14.38,73946.5,-1.63,-3.95,-7.53,0,*58
1491278701.49,48359,14.38,73948.0,-1.63,-3.35,-5.19,0,*5F
1491278702.72,48360,14.38,73950.0,-1.61,-3.11,-3.75,0,*5D
1491278703.92,48361,14.38,73948.8,-1.63,-3.07,-3.19,0,*53
1491278705.14,48362,14.38,73948.5,-1.61,-3.07,-2.87,0,*54
1491278706.37,48363,14.38,73946.5,-1.63,-3.47,-2.95,0,*50
1491278707.58,48364,14.38,73946.0,-1.63,-3.87,-2.95,0,*5B
1491278708.79,48365,14.38,73946.8,-1.61,-4.37,-3.19,0,*51
1491278710.01,48366,14.38,73950.8,-1.63,-4.73,-3.39,0,*52
1491278711.27,48367,14.38,73948.3,-1.61,-4.77,-3.63,0,*5A
1491278712.5,48368,14.38,73950.5,-1.61,-4.29,-3.75,0,*59
1491278713.75,48369,14.38,73948.0,-1.61,-3.95,-3.51,0,*5E
1491278714.99,48370,14.38,73946.8,-1.61,-3.83,-3.27,0,*50
1491278716.21,48371,14.38,73948.0,-1.61,-3.95,-3.23,0,*52
1491278717.44,48372,14.38,73952.3,-1.61,-4.49,-3.27,0,*53
1491278718.65,48373,14.38,73950.0,-1.59,-4.99,-3.47,0,*52
1491278719.88,48374,14.38,73946.8,-1.59,-5.51,-4.01,0,*55
1491278721.13,48375,14.38,73944.3,-1.61,-5.65,-4.61,0,*5E
1491278722.36,48376,14.38,73942.5,-1.59,-5.35,-4.85,0,*59
1491278723.61,48377,14.38,73940.8,-1.59,-4.81,-4.85,0,*56
1491278724.83,48378,14.38,73946.5,-1.55,-4.69,-4.57,0,*5C
1491278726.09,48379,14.38,73948.8,-1.61,-5.03,-4.41,0,*50
1491278727.32,48380,14.38,73948.8,-1.59,-5.65,-4.61,0,*5F
1491278728.54,48381,14.38,73944.3,-1.59,-6.27,-5.35,0,*5B
1491278729.77,48382,14.38,73944.3,-1.59,-6.59,-5.77,0,*57
1491278730.97,48383,14.38,73946.3,-1.59,-7.11,-6.05,0,*5D
1491278732.2,48384,14.38,73946.0,-1.59,-7.91,-6.47,0,*54
1491278733.45,48385,14.38,73944.3,-1.59,-9.61,-7.65,0,*55
1491278734.67,48386,14.38,73946.3,-1.59,-10.05,-9.11,0,*61
1491278735.9,48387,14.38,73944.0,-1.59,-9.27,-9.15,0,*5C
1491278737.1,48388,14.38,73946.5,-1.59,-8.33,-8.45,0,*53
1491278738.35,48389,14.38,73946.5,-1.59,-8.03,-7.73,0,*5B
1491278739.57,48390,14.38,73944.0,-1.59,-7.87,-7.31,0,*56
1491278740.8,48391,14.38,73944.3,-1.59,-7.99,-7.11,0,*5A
1491278742.01,48392,14.38,73944.5,-1.59,-7.87,-7.19,0,*5E
1491278743.25,48393,14.38,73944.8,-1.59,-8.03,-7.05,0,*51
1491278744.45,48394,14.38,73946.8,-1.59,-8.59,-7.19,0,*54
1491278745.71,48395,14.38,73942.3,-1.59,-9.49,-7.73,0,*59
1491278746.9,48396,14.38,73946.8,-1.59,-10.05,-8.29,0,*6A
1491278748.09,48397,14.38,73942.3,-1.59,-10.09,-8.67,0,*6D
1491278749.32,48398,14.38,73940.8,-1.59,-9.41,-8.97,0,*59
1491278750.52,48399,14.38,73940.3,-1.59,-8.59,-8.67,0,*5F
1491278751.77,48400,14.38,73942.8,-1.59,-7.77,-7.91,0,*5D
1491278752.99,48401,14.38,73942.8,-1.55,-7.05,-7.19,0,*55
1491278754.19,48402,14.38,73946.0,-1.59,-6.69,-6.55,0,*58
1491278755.39,48403,14.38,73948.5,-1.59,-6.59,-6.05,0,*5F
1491278756.62,48404,14.38,73942.3,-1.59,-6.85,-5.77,0,*5F
1491278757.87,48405,14.38,73940.0,-1.55,-7.73,-5.93,0,*50
1491278759.07,48406,14.38,73942.5,-1.59,-8.41,-6.69,0,*57
1491278760.3,48407,14.38,73944.5,-1.59,-8.97,-7.39,0,*59
1491278761.53,48408,14.38,73944.0,-1.61,-8.97,-7.83,0,*5C
1491278762.78,48409,14.38,73944.8,-1.61,-8.51,-8.17,0,*55
1491278764.04,48410,14.38,73946.8,-1.59,-7.57,-7.65,0,*55
1491278765.27,48411,14.38,73946.8,-1.59,-6.47,-6.93,0,*5C
1491278766.49,48412,14.38,73946.0,-1.59,-5.69,-6.13,0,*58
1491278767.72,48413,14.38,73942.3,-1.59,-5.11,-5.47,0,*54
1491278768.95,48414,14.38,73944.8,-1.59,-4.57,-4.85,0,*5F
1491278770.15,48415,14.38,73944.8,-1.59,-4.13,-4.33,0,*53
1491278771.36,48416,14.38,73944.5,-1.59,-3.91,-3.91,0,*52
1491278772.61,48417,14.38,73940.3,-1.59,-3.71,-3.67,0,*54
1491278773.85,48418,14.38,73942.8,-1.55,-3.47,-3.47,0,*50
1491278775.05,48419,14.38,73940.5,-1.59,-3.35,-3.31,0,*59
1491278776.25,48420,14.38,73938.8,-1.59,-3.35,-3.19,0,*59
1491278777.45,48421,14.38,73938.5,-1.55,-3.31,-3.19,0,*50
1491278778.65,48422,14.38,73946.5,-1.55,-3.35,-3.07,0,*58
1491278779.88,48423,14.38,73946.0,-1.59,-3.43,-3.07,0,*54
1491278781.11,48424,14.38,73942.3,-1.55,-3.47,-3.07,0,*5B
1491278782.33,48425,14.38,73940.0,-1.55,-3.59,-3.23,0,*53
1491278783.55,48426,14.38,73940.3,-1.55,-3.67,-3.35,0,*5A
1491278784.74,48427,14.38,73946.5,-1.55,-3.23,-3.31,0,*5F
1491278785.94,48428,14.38,73944.5,-1.55,-3.07,-3.19,0,*5C
1491278787.14,48429,14.38,73944.3,-1.55,-2.95,-3.07,0,*58
1491278788.34,48430,14.38,73946.0,-1.59,-2.83,-2.91,0,*55
1491278789.53,48431,14.38,73944.3,-1.55,-2.83,-2.79,0,*5E
1491278790.73,48432,14.38,73948.3,-1.55,-2.95,-2.79,0,*5A
1491278791.93,48433,14.38,73944.3,-1.55,-3.03,-2.79,0,*55
1491278793.12,48434,14.38,73948.3,-1.55,-3.31,-2.91,0,*55
1491278794.35,48435,14.38,73946.8,-1.55,-3.55,-2.95,0,*52
1491278795.56,48436,14.38,73944.5,-1.51,-3.79,-3.11,0,*56
1491278796.77,48437,14.38,73948.8,-1.55,-4.37,-3.43,0,*59
1491278798.0,48438,14.38,73944.3,-1.59,-4.89,-3.91,0,*50
1491278799.2,48439,14.38,73946.5,-1.55,-5.39,-4.33,0,*58
1491278800.4,48440,14.38,73940.5,-1.55,-6.01,-4.61,0,*59
1491278801.65,48441,14.38,73942.0,-1.53,-6.77,-4.93,0,*52
1491278802.9,48442,14.38,73942.5,-1.53,-7.87,-5.61,0,*53
1491278804.14,48443,14.38,73946.8,-1.55,-9.15,-6.59,0,*59
1491278805.37,48444,14.38,73944.0,-1.55,-10.75,-8.45,0,*63
1491278806.65,48445,14.38,73944.3,-1.53,-10.71,-9.61,0,*67
1491278807.92,48446,14.38,73946.8,-1.53,-10.71,-9.57,0,*61
1491278809.19,48447,14.38,73942.3,-1.53,-11.93,-10.01,0,*56
1491278810.45,48448,14.38,73936.0,-1.53,-11.85,-11.41,0,*5B
1491278811.71,48449,14.38,73940.0,-1.53,-8.11,-9.93,0,*59
1491278812.95,48450,14.38,73940.3,-1.53,-6.63,-7.15,0,*5A
1491278814.19,48451,14.38,73940.0,-1.53,-6.27,-5.97,0,*53
1491278815.45,48452,14.38,73938.8,-1.53,-6.09,-5.61,0,*55
1491278816.65,48453,14.38,73942.0,-1.55,-6.13,-5.39,0,*54
1491278817.87,48454,14.38,73940.8,-1.53,-6.09,-5.35,0,*52
1491278819.08,48455,14.38,73938.8,-1.55,-6.13,-5.47,0,*5B
1491278820.27,48456,14.38,73932.5,-1.55,-6.05,-5.39,0,*56
1491278821.47,48457,14.38,73930.8,-1.55,-6.13,-5.35,0,*5C
1491278822.69,48458,14.38,73934.3,-1.55,-6.27,-5.35,0,*54
1491278823.89,48459,14.38,73938.5,-1.55,-6.55,-5.47,0,*55
1491278825.17,48460,14.38,73938.5,-1.53,-7.05,-5.65,0,*5D
1491278826.38,48461,14.38,73936.0,-1.53,-7.49,-5.97,0,*59
1491278827.63,48462,14.38,73938.0,-1.53,-8.11,-6.39,0,*5F
1491278828.89,48463,14.38,73934.5,-1.53,-9.01,-6.93,0,*5E
1491278830.13,48464,14.38,73930.5,-1.53,-8.81,-7.49,0,*56
1491278831.38,48465,14.38,73928.5,-1.53,-8.25,-7.57,0,*56
1491278832.63,48466,14.38,73934.5,-1.53,-8.37,-7.31,0,*56
1491278833.86,48467,14.44,73940.5,-1.55,-8.67,-7.77,0,*56
1491278835.08,48468,14.38,73934.8,-1.55,-8.59,-7.73,0,*50
1491278836.31,48469,14.38,73934.3,-1.55,-8.11,-7.19,0,*51
1491278837.52,48470,14.38,73928.8,-1.55,-7.53,-6.81,0,*50
1491278838.74,48471,14.38,73928.8,-1.55,-7.05,-6.47,0,*58
1491278839.97,48472,14.38,73928.0,-1.55,-6.55,-6.27,0,*59
1491278841.16,48473,14.38,73932.0,-1.55,-6.13,-6.01,0,*5E
1491278842.41,48474,14.38,73934.3,-1.55,-5.81,-5.77,0,*53
1491278843.61,48475,14.38,73930.0,-1.55,-5.35,-5.39,0,*57
1491278844.84,48476,14.38,73932.8,-1.55,-4.99,-5.03,0,*5A
1491278846.06,48477,14.38,73934.8,-1.53,-4.45,-4.65,0,*5D
1491278847.28,48478,14.38,73932.5,-1.53,-4.05,-4.33,0,*55
1491278848.51,48479,14.38,73934.3,-1.53,-3.75,-3.87,0,*5C
1491278849.77,48480,14.44,73932.8,-1.53,-3.55,-3.63,0,*52
1491278851.02,48481,14.38,73932.3,-1.53,-3.63,-3.39,0,*59
1491278852.25,48482,14.38,73934.5,-1.53,-3.79,-3.39,0,*51
1491278853.47,48483,14.44,73934.0,-1.53,-3.87,-3.39,0,*51
1491278854.72,48484,14.44,73932.3,-1.53,-3.87,-3.43,0,*5B
1491278855.97,48485,14.44,73932.5,-1.53,-3.91,-3.51,0,*5E
1491278857.22,48486,14.44,73938.0,-1.53,-3.91,-3.55,0,*59
1491278858.46,48487,14.44,73938.3,-1.53,-4.17,-3.55,0,*51
1491278859.65,48488,14.38,73932.8,-1.51,-4.29,-3.75,0,*53
1491278860.85,48489,14.38,73932.8,-1.51,-4.33,-3.79,0,*55
1491278862.05,48490,14.38,73934.5,-1.51,-4.53,-3.79,0,*5B
1491278863.29,48491,14.44,73932.5,-1.53,-5.07,-4.17,0,*57
1491278864.54,48492,14.38,73930.5,-1.53,-5.11,-4.41,0,*50
1491278865.72,48493,14.38,73928.3,-1.51,-4.99,-4.45,0,*56
1491278866.97,48494,14.38,73932.8,-1.53,-4.81,-4.41,0,*5E
1491278868.21,48495,14.38,73938.0,-1.53,-4.81,-4.41,0,*5F
1491278869.42,48496,14.38,73934.8,-1.51,-4.85,-4.45,0,*5E
1491278870.66,48497,14.44,73938.0,-1.53,-4.93,-4.53,0,*5D
1491278871.91,48498,14.38,73934.5,-1.53,-5.11,-4.57,0,*5D
1491278873.16,48499,14.44,73938.3,-1.51,-5.23,-4.85,0,*50
1491278874.44,48500,14.38,73934.3,-1.53,-5.31,-4.85,0,*50
1491278875.69,48501,14.38,73940.0,-1.53,-5.55,-4.93,0,*54
1491278876.94,48502,14.44,73944.0,-1.53,-5.97,-5.11,0,*52
1491278878.17,48503,14.38,73940.3,-1.51,-6.55,-5.31,0,*5E
1491278879.41,48504,14.44,73940.8,-1.51,-7.35,-5.73,0,*58
1491278880.63,48505,14.44,73940.5,-1.49,-8.45,-6.39,0,*55
1491278881.89,48506,14.38,73936.3,-1.51,-9.11,-7.27,0,*51
1491278883.11,48507,14.44,73940.5,-1.51,-9.37,-7.83,0,*5A
1491278884.35,48508,14.44,73934.8,-1.51,-9.83,-8.51,0,*5A
1491278885.57,48509,14.44,73934.5,-1.51,-8.75,-8.51,0,*53
1491278886.77,48510,14.44,73934.8,-1.51,-8.17,-7.49,0,*59
1491278888.0,48511,14.44,73936.5,-1.53,-8.55,-7.15,0,*55
1491278889.22,48512,14.44,73938.3,-1.51,-9.19,-7.43,0,*5E
1491278890.43,48513,14.44,73938.8,-1.51,-10.19,-8.29,0,*64
1491278891.65,48514,14.38,73938.0,-1.53,-10.45,-9.23,0,*63
1491278892.85,48515,14.44,73936.5,-1.51,-9.57,-8.67,0,*5A
1491278894.05,48516,14.44,73936.8,-1.51,-9.01,-8.25,0,*5C
1491278895.3,48517,14.44,73940.3,-1.53,-9.05,-7.99,0,*53
1491278896.56,48518,14.44,73940.8,-1.53,-9.19,-8.07,0,*59
1491278897.76,48519,14.38,73936.8,-1.51,-9.23,-8.41,0,*51
1491278899.03,48520,14.38,73940.8,-1.53,-8.51,-8.51,0,*5C
1491278900.25,48521,14.38,73934.3,-1.51,-7.95,-8.25,0,*5B
1491278901.5,48522,14.44,73936.3,-1.51,-7.73,-7.73,0,*5C
1491278902.78,48523,14.38,73932.8,-1.53,-7.61,-7.57,0,*5A
1491278904.05,48524,14.44,73936.5,-1.53,-7.61,-7.31,0,*5D
1491278905.25,48525,14.44,73936.8,-1.51,-7.49,-7.15,0,*52
1491278906.49,48526,14.38,73932.5,-1.53,-7.01,-6.89,0,*5B